Regional Weather Roundup
Issued by NWS

Home | Current Version | Previous Version | Graphics & Text | Print | Product List | Glossary On
Versions: 1 2 3 4 5 6 7 8 9 10 11 12 13 14 15 16 17 18 19 20 21 22 23 24 25 26 27 28 29 30 31 32 33 34 35 36 37 38 39 40 41 42 43 44 45 46 47 48 49 50
000
ASUS44 KMEG 020610
RWRTN
TENNESSEE HOURLY STATE WEATHER ROUNDUP
NATIONAL WEATHER SERVICE MEMPHIS TN
100 AM CDT THU JUL 02 2015

TNZ002-004-019-021-049-052-054-088>092-020700-
WEST TENNESSEE

CITY           SKY/WX    TMP DP  RH WIND       PRES   REMARKS
MEMPHIS INTL   CLOUDY    82  71  69 SW9       29.93S
NWS MEMPHIS      N/A     80 N/A N/A MISG        N/A
JACKSON        MOCLDY    77  73  87 S8        29.92F
DYERSBURG        N/A    N/A N/A N/A MISG        N/A
PARIS          MOCLDY    66  64  94 CALM      29.93F
LEXINGTON      CLEAR     73  72  94 SW6       29.93F
$$

TNZ008-025-027-028-033-062-065-066-020700-
NORTH MIDDLE TENNESSEE

CITY           SKY/WX    TMP DP  RH WIND       PRES   REMARKS
NASHVILLE      TSTM      69  69 100 NW8G18    29.96F FOG
CLARKSVILLE    MOCLDY    71  68  90 SW8       29.92F
SMYRNA         LGT RAIN  70  66  88 CALM      29.99R
COOKEVILLE     CLOUDY    70  66  88 CALM      29.98F
CROSSVILLE     MOCLDY    66  62  87 VRB3      30.03F
$$

TNZ061-075-076-078-094-096-097-020700-
SOUTH MIDDLE TENNESSEE

CITY           SKY/WX    TMP DP  RH WIND       PRES   REMARKS
FAYETTEVILLE   MOCLDY    66  66 100 CALM      29.99F
TULLAHOMA      PTCLDY    66  66 100 S5        30.00F
WINCHESTER     CLOUDY    70  66  88 SE6       30.00F
MCMINNVILLE    MOCLDY    68  68 100 CALM      30.00S
COLUMBIA       PTCLDY    72  72 100 SW7       29.94F
SHELBYVILLE    CLOUDY    72  70  94 N3        29.99F
$$

TNZ017-018-042-046-047-020700-
NORTHEAST TENNESSEE

CITY           SKY/WX    TMP DP  RH WIND       PRES   REMARKS
TRI CITIES     CLOUDY    68  66  93 SW5       30.01F
ELIZABETHTON   CLOUDY    64  64 100 CALM      30.02F
$$

TNZ012-013-036-069-073-074-020700-
CENTRAL EAST TENNESSEE

CITY           SKY/WX    TMP DP  RH WIND       PRES   REMARKS
KNOXVILLE      CLOUDY    69  65  86 W8        30.00F
OAK RIDGE      CLOUDY    70  65  84 MISG      30.01F
GATLINBURG     CLOUDY    68  64  88 CALM      30.00F
MORRISTOWN     PTCLDY    70  66  88 SW9       30.02S
$$

TNZ083-085-099-020700-
SOUTHEAST TENNESSEE

CITY           SKY/WX    TMP DP  RH WIND       PRES   REMARKS
CHATTANOOGA    RAIN      68  67  96 SE3       30.01F FOG
$$

SKY/WX REPORTED AS FAIR MEANS FEW OR NO CLOUDS BELOW
12 THOUSAND FEET.



USA.gov is the U.S. government's official web portal to all federal, state and local government web resources and services.